This is the latest recevied weather packets stored in our database for station/object KF0PEC-15. If no packets are shown the sender has not sent any weather packets the latest 1 day(s).
| Time | Temp. | Humidity | Pressure | Rain* | Wind** | Luminosity | Snow |
|---|---|---|---|---|---|---|---|
| 1778044165 | 0.56° C | 88% | 1023 hPa | 0 mm | - | 0 W/m² | - |
| 1778043630 | 0.56° C | 89% | 1023.1 hPa | 0 mm | - | 0 W/m² | - |
| 1778043135 | 0.56° C | 90% | 1023.1 hPa | 0 mm | - | 0 W/m² | - |
| 1778042590 | 0.56° C | 91% | 1023 hPa | 0 mm | - | 0 W/m² | - |
| 1778042015 | 0.56° C | 91% | 1023 hPa | 0 mm | - | 0 W/m² | - |
| 1778041445 | 0.56° C | 91% | 1022.9 hPa | 0 mm | - | 0 W/m² | - |
| 1778040910 | 0.56° C | 92% | 1022.9 hPa | 0 mm | - | 0 W/m² | - |
| 1778040412 | 0.56° C | 92% | 1023.1 hPa | 0 mm | - | 0 W/m² | - |
| 1778039870 | 0.56° C | 93% | 1023 hPa | 0 mm | - | 0 W/m² | - |
| 1778039375 | 0.56° C | 93% | 1022.9 hPa | 0 mm | - | 0 W/m² | - |
| 1778038780 | 0.56° C | 93% | 1022.7 hPa | 0 mm | - | 0 W/m² | - |
| 1778038225 | 0.56° C | 93% | 1022.7 hPa | 0 mm | - | 0 W/m² | - |
| 1778037640 | 0.56° C | 92% | 1022.3 hPa | 0 mm | - | 0 W/m² | - |
| 1778037100 | 0.56° C | 92% | 1022.2 hPa | 0 mm | - | 0 W/m² | - |
| 1778036530 | 0.56° C | 93% | 1021.9 hPa | 0 mm | - | 0 W/m² | - |
| 1778036005 | 0.56° C | 93% | 1021.6 hPa | 0 mm | - | 0 W/m² | - |
| 1778035502 | 1.11° C | 93% | 1021.3 hPa | 0 mm | - | 0 W/m² | - |
| 1778034985 | 0.56° C | 93% | 1021.3 hPa | 0 mm | - | 0 W/m² | - |
| 1778034505 | 1.11° C | 93% | 1021.2 hPa | 0 mm | - | 0 W/m² | - |
| 1778033945 | 1.11° C | 94% | 1020.8 hPa | 0 mm | - | 5 W/m² | - |
| 1778033355 | 1.11° C | 94% | 1020.7 hPa | 0 mm | - | 42 W/m² | - |
| 1778032860 | 1.11° C | 95% | 1020.5 hPa | 0 mm | - | 77 W/m² | - |
| 1778032352 | 1.11° C | 95% | 1020.4 hPa | 0 mm | - | 132 W/m² | - |
| 1778031755 | 2.22° C | 95% | 1019.5 hPa | 0 mm | - | 128 W/m² | - |
| 1778031260 | 2.22° C | 95% | 1019.2 hPa | 0 mm | - | 322 W/m² | - |
* Rain latest hour (hover to see other rain measurements)
** Current wind speed in m/s (hover to see current wind gust speed)